Location: Lesignano de� Bagni
(44.6500°N, 10.3000°E)
Time: 05:41:29
(UTC+00:00)

Cosmos 864 Rocket - Pass Details

Date: 03 March 2021
Orbit: 954 x 990 km, 82.9° (Epoch: 13 April)

Event Time Altitude Azimuth Distance (km) Brightness Sun altitude
Rises 19:03:53 0° 181° (S) 3,621 7.4 -21.1°
Reaches altitude 10° 19:06:21 10° 179° (S) 2,682 6.7 -21.5°
Maximum altitude 19:12:28 76° 95° (E) 995 4.3 -22.6°
Drops below altitude 10° 19:18:41 10° 11° (N) 2,722 6.9 -23.6°
Sets 19:21:13 0° 10° (N) 3,679 7.6 -24.1°
